Flag for Burundi Weather past 2 weeks in Muyinga, Burundi

Now
84 °F

Scattered clouds.


Feels Like: 83 °F
Forecast: 61 / 78 °F
Wind: 7 mph from Southeast

Location: Kigali Airport

Current Time: Aug 4, 2015 at 5:02:09 PM

Latest Report: Aug 4, 2015 at 4:30 PM


Visibility: N/A

Pressure: 30.09 "Hg (24.69 "Hg at 1749m altitude)

Humidity: 37%

Dew point: 55 °F

Location of MuyingaLocation

Historic Weather in Muyinga — Graph

°F

Muyinga temperature yesterday

Maximum temperature yesterday: 79 °F (at 12:30 PM)
Minimum temperature yesterday: 59 °F (at 3:30 AM)
Average temperature yesterday: 70 °F

Past Weeks' High & Low Weather Summary

 TemperatureHumidityPressure
High86 °F (Jul 24, 3:00 PM)100% (Jul 27, 7:30 AM)30.24 "Hg (Jul 27, 7:30 AM)
Low59 °F (Jul 24, 6:30 AM)29% (Jul 28, 3:30 PM)30.04 "Hg (Jul 25, 4:00 PM)
Average73 °F59%30.14 "Hg
* Reported Jul 20 5:00 PM — Aug 4 4:00 PM, Muyinga, Weather by CustomWeather, © 2015

Note: Actual official high and low records may vary slightly from our data, if they occured in-between our weather recording intervals... More about our weather records

Advertising

Muyinga weather history for previous 24 hours

 ConditionsComfort  
Time TempWeatherWind HumidityBarometerVisibility
4:00 PM
Tue, Aug 4
84 °FPartly sunny.7 mph37%30.09 "HgN/A
3:30 PM84 °FPartly sunny.7 mph37%30.09 "HgN/A
3:00 PM82 °FPartly sunny.7 mph40%30.09 "HgN/A
2:30 PM82 °FPartly sunny.7 mph40%30.09 "HgN/A
1:30 PM82 °FPartly sunny.7 mph42%30.12 "HgN/A
1:00 PM81 °FScattered clouds.9 mph42%30.15 "HgN/A
12:30 PM81 °FScattered clouds.12 mph45%30.15 "HgN/A
12:00 PM81 °FScattered clouds.12 mph42%30.18 "HgN/A
11:30 AM79 °FScattered clouds.12 mph48%30.18 "HgN/A
11:00 AM79 °FPassing clouds.10 mph48%30.18 "HgN/A
10:30 AM79 °FPassing clouds.9 mph48%30.21 "HgN/A
10:00 AM77 °FPassing clouds.10 mph51%30.21 "HgN/A
9:30 AM75 °FPassing clouds.6 mph57%30.21 "HgN/A
9:00 AM72 °FPassing clouds.No wind65%30.21 "HgN/A
8:30 AM68 °FScattered clouds.3 mph73%30.21 "HgN/A
8:00 AM66 °FScattered clouds.No wind78%30.21 "HgN/A
7:30 AM66 °FScattered clouds.No wind78%30.21 "HgN/A
7:00 AM64 °FScattered clouds.No wind83%30.18 "HgN/A
6:30 AM64 °FScattered clouds.No wind78%30.18 "HgN/A
6:00 AM66 °FPassing clouds.3 mph73%30.15 "HgN/A
5:30 AM64 °FPassing clouds.3 mph78%30.15 "HgN/A
5:00 AM64 °FPassing clouds.No wind78%30.15 "HgN/A
4:30 AM64 °FPassing clouds.No wind78%30.15 "HgN/A
4:00 AM64 °FPassing clouds.3 mph78%30.12 "HgN/A
3:30 AM66 °FPassing clouds.No wind73%30.12 "HgN/A
3:00 AM66 °FPassing clouds.No wind73%30.12 "HgN/A
2:00 AM68 °FPassing clouds.No wind69%30.12 "HgN/A
1:30 AM68 °FPassing clouds.No wind69%30.12 "HgN/A
1:00 AM68 °FPassing clouds.No wind69%30.15 "HgN/A
12:00 AM70 °FPassing clouds.No wind64%30.18 "HgN/A
11:30 PM
Mon, Aug 3
70 °FPassing clouds.No wind64%30.18 "HgN/A
11:00 PM70 °FPassing clouds.No wind64%30.18 "HgN/A
10:30 PM72 °FPassing clouds.No wind61%30.18 "HgN/A
10:00 PM72 °FPassing clouds.3 mph61%30.18 "HgN/A
9:30 PM72 °FPassing clouds.No wind61%30.18 "HgN/A
9:00 PM72 °FPassing clouds.No wind61%30.18 "HgN/A
8:30 PM72 °FPassing clouds.No wind61%30.18 "HgN/A
8:00 PM73 °FPassing clouds.3 mph57%30.15 "HgN/A
7:30 PM75 °FPassing clouds.3 mph50%30.15 "HgN/A
7:00 PM75 °FPassing clouds.3 mph50%30.15 "HgN/A
6:30 PM75 °FPartly cloudy.6 mph50%30.15 "HgN/A
6:00 PM75 °FPartly sunny.7 mph50%30.15 "HgN/A
5:30 PM77 °FBroken clouds.7 mph47%30.12 "HgN/A
5:00 PM77 °FBroken clouds.9 mph47%30.12 "HgN/A
Weather by CustomWeather, © 2015

See weather overviewHow to use our weather pages